Погода в Ауле

Поиск расширенной информации на нашем сайте:

Полезная информация:

Новости сайта



02.01.2020
Опубликован Долгосрочный прогноз погоды по городам России и ближнего зарубежья на январь 2020 года.
Карты: Прогноз на январь и февраль 2020 года, Сравнение прогнозируемой аномалии приземной температуры воздуха на январь 2020 года по разным моделям.




Погода в Ауле - сегодня

Время (UTC), дата Ветер
(°,м/с) 
Видим.   Явления Облачность Т
(°С)
Тd
(°С)
f(%) Тe
(°С)
Pmin
(гПа)
dP
(гПа)
Po
(мм)
O2
(г/м3)
Тmin Tmax R s Состояние
почвы
09 22.10.21 250 (З) 20000 м    9/0 средняя 
[Ac lent]
+6.7 -6.1 40 +5  1032.9  0.3  741  292           
12 22.10.21 270 (З) 20000 м    8/0 средняя 
[Ac trans]
+6.2 -5.3 43 +5  1034.5  1.4  743  293           
15 22.10.21 260 (З) н/о    8/0 средняя 
[Ac trans]
+3.7 -5.9 49 +2  1035.5  0.6  743  296    +7.1       
18 22.10.21 220 (ЮЗ) н/о    4/0 верхняя 
[Ci fib]
+0.5 -5.6 64 1036  743  299    +7.1       
21 22.10.21 210 (ЮЗ) н/о    8/0 верхняя 
[Ci fib]
-1.2 -5.5 73 -2  936.5  0.2  743  301           
00 23.10.21 190 (Ю) 3{05}  н/о    8/0 верхняя 
[Ci fib]
-2.3 -4.2 87 -4  1037.1  0.4  743  303           
03 23.10.21 200 (Ю) 20000 м    10/0 средняя 
[Ac As]
+1.9 -1.2 80 +1  1038  1.5  745  298           
06 23.10.21 210 (ЮЗ) 20000 м    ясно 
+9.2 -1.7 46 +9  1036.7  -0.1  744  290  -2.6         
09 23.10.21 200 (Ю) 20000 м    ясно 
+10.7 -1.9 41 +11  1034.6  -1.8  743  288           
12 23.10.21 тихо ()   20000 м    9/0 средняя, верхняя 
[Ac trans|Ci fib]
+9.4 -3.2 41 +9  1034.8  743  290           
15 23.10.21 тихо ()   н/о    ясно 
+4.2 -2.2 63 +4  1036.1  0.5  743  295    +11.3       
18 23.10.21 090 (В) н/о    ясно 
+0.9 -2.3 79 1035.5  -1.1  743  298    +11.3       
21 23.10.21 140 (ЮВ) н/о    ясно 
-2.3 -4.8 83 -3  1035.5  -0.6  742  302           
00 24.10.21 140 (ЮВ) 3{03}  н/о    ясно 
-3.1 -4.8 88 -5  1035.2  -0.4  742  303           
03 24.10.21 110 (В) 20000 м    ясно 
+1.1 -2.7 76 1034.4  742  298           
06 24.10.21 090 (В) 20000 м    ясно 
+11.2 -2.1 39 +11  1030.9  -1.8  741  287  -3.6         
09 24.10.21 090 (В) 20000 м    ясно 
+13.8 -4.6 28 +13  1027.5  -2.9  738  284           
12 24.10.21 090 (В) 20000 м    ясно 
+13 -6.3 26 +12  1026.6  -1  738  284           
15 24.10.21 080 (В) н/о    ясно 
+6.7 -7 37 +5  1026.3  -1.2  737  290    +14.6       
18 24.10.21 070 (В) н/о    ясно 
+3.5 -6.1 49 +1  1025.1  -1.7  735  293    +14.6       
21 24.10.21 070 (В) н/о    ясно 
-1 -7.5 61 -4  1024.2  -1.6  734  298           
00 25.10.21 060 (СВ) 4{07}  н/о    ясно 
-2.9 -7.8 69 -6  1023.2  -1.2  733  299           
03 25.10.21 020 (С) 20000 м    ясно 
+1.6 -2.1 76 -1  1021.4  -1  733  294           
06 25.10.21 030 (СВ) 20000 м    ясно 
+10.4 -1.8 42 +10  1019.5  -0.5  732  284    +5.3  310    мокрая 
09 25.10.21 040 (СВ) 20000 м    ясно 
+15.6 -3 28 +16  1016.9  -1.7  731  279           
Время (UTC), дата Ветер
(°,м/с) 
Видим.   Явления Облачность Т
(°С)
Тd
(°С)
f(%) Тe
(°С)
Pmin
(гПа)
dP
(гПа)
Po
(мм)
O2
(г/м3)
Тmin Tmax R s Состояние
почвы

Для получения пояснительной информации подведите курсор к названию столбца.

ПОГОДА в Ауле - архив

Всё, что Вы хотите узнать о погоде в Ауле - удобно и подробно!

Выберите нужную дату (начиная с 1 января 2019* года) и нажмите кнопку "Найти".
Будут отображены архивные сводки погоды по пункту Аул, начиная с указанной даты.


Отображать данные в формате CSV (для использования в таблицах Excel)


Внимание! Наш архив погоды предназначен исключительно для личного некоммерческого использования в познавательных целях. Если Вам необходимы официальные справки о состоянии погоды (для производственных, юридических, коммерческих и т.п. целей), обращайтесь в органы Росгидромета.

*Примечание: данная дата относится к архиву по метеостанциям СССР (Россия, СНГ, Балтия).
Архив по метеостанциям Зарубежной Европы и Азии (кроме Китая) хранится 10 дней, по другим регионам земного шара (Китай, Африка, Америка, Австралия, Океания) - 1 день.

Аул - район местоположения метеостанции


Название, широта, долгота, высота метеостанции:
Аул 45.6°ш. 75.1°д. 353 м над ур. моря [Казахстан]

Дополнительная информация

В oтличие oт бoльшинства пoгoдных сайтoв мы публикуем пoдрoбную метеoинфoрмацию в детальнoм прoфессиoнальнoм фoрмате.

Характеристики температуры и влажнoсти вoздуха измеряются на высoте 2 м в тени вдали oт зданий и деревьев.
Скoрoсть ветра измеряется на высoте 10 м (на урoвне рoста челoвека скoрoсть ветра ниже в 1.5-2 раза). Если метеoстанция нахoдится в гoрoде или в лесу, тo скoрoсть ветра занижена на 2-4 м/с пo сравнению с oткрытым местoм. Скoрoсть ветра над акватoриями крупных рек и oзёр, а также на вершинах хoлмoв на 2-5 м/с выше, чем в oбычных услoвиях.
Атмoсфернoе давление в разных тoчках местнoсти мoжет значительнo oтличаться oт давления на метеoстанции, в зависимoсти oт услoвий рельефа (при пoдъёме на 10 м давление пoнижается примернo на 1 мм рт.ст.).